Theta_e
337 337 336 335 336 334 332 330 329 330 329 328 328 328 329 329 329 330 331 331 331 332 333 333 332 332 331 332 332 332 331 330 328 328 326 323 323 326 328 326 325 327 326 327 327 327 327 326 326 325 324 324 323 323 323 323 322 322 322 322 322 322 322 321 321 320 319 319 319 319 319 320 320 321 321 320 320 320 320 321 321 320 320 320 320
337 336 336 336 335 333 332 333 332 331 332 332 332 331 332 331 331 331 331 331 331 332 332 332 332 331 330 331 332 332 331 330 329 328 326 323 323 327 328 324 325 327 327 328 328 327 327 326 325 324 324 323 323 323 323 323 323 322 322 321 321 321 321 321 320 319 318 318 319 319 319 319 320 320 320 320 320 319 320 320 319 319 319 319 320
336 335 335 335 335 334 333 334 333 333 333 333 333 333 332 333 332 332 332 331 331 331 331 331 331 331 330 330 331 332 332 330 329 328 326 323 322 326 327 324 326 328 328 328 327 327 327 325 325 324 323 323 323 323 322 322 322 321 321 321 321 321 320 320 319 319 318 318 319 319 318 319 319 319 319 319 319 319 319 319 319 319 319 319 318
336 335 335 335 335 335 334 334 334 333 333 333 335 334 333 334 333 332 333 331 331 330 330 331 330 330 330 331 332 332 332 330 329 328 326 322 320 323 324 324 327 328 327 326 326 327 327 325 324 323 322 323 323 321 320 320 321 321 321 321 320 320 320 320 320 319 318 318 318 318 318 318 318 318 318 318 319 319 319 319 319 319 319 318 318
335 335 335 336 336 335 335 334 335 334 334 334 335 334 334 334 333 332 332 332 331 330 330 330 330 331 331 331 332 332 332 331 330 327 324 320 318 319 321 325 328 328 327 327 328 329 329 327 324 321 320 321 321 320 319 319 319 320 320 321 320 319 319 319 318 319 320 319 318 317 318 318 318 318 317 317 318 319 319 318 318 319 319 319 319
335 335 335 336 335 335 335 334 334 335 335 335 334 333 332 332 333 332 332 332 332 331 330 330 330 331 330 331 333 333 333 332 330 327 324 320 318 318 320 325 328 327 328 329 329 330 330 330 326 321 319 319 319 319 320 319 319 318 318 319 318 317 318 317 316 317 318 319 319 318 317 318 318 318 318 318 318 318 318 318 318 318 318 318 318
335 335 335 336 335 334 334 334 334 334 335 336 334 333 332 332 333 333 332 332 331 331 330 330 330 329 329 331 334 333 333 332 330 326 324 322 320 319 321 325 327 328 329 329 329 330 330 330 327 322 319 318 319 320 320 318 316 315 315 316 316 317 317 316 315 315 317 318 318 317 316 316 317 317 318 318 318 318 318 317 317 318 318 317 318
335 336 336 335 334 334 334 334 334 334 335 336 334 334 333 333 333 332 332 331 331 331 330 330 330 329 329 330 333 333 333 332 329 327 325 323 323 323 324 326 327 328 329 329 329 329 329 329 326 323 322 320 320 321 321 319 316 314 314 314 315 316 316 315 314 315 316 315 315 315 316 315 315 316 316 317 317 317 317 317 317 317 317 318 318
335 336 336 335 334 333 333 334 333 333 334 335 334 334 333 333 333 332 332 332 331 331 331 330 330 330 330 330 331 333 333 333 330 327 326 325 325 326 326 326 327 328 328 329 328 327 329 329 326 326 325 323 322 323 323 322 320 319 318 317 317 316 315 314 315 316 316 314 314 315 314 313 313 312 312 315 316 317 317 317 317 317 317 317 318
336 336 335 335 334 333 334 334 334 334 334 335 334 333 332 332 333 331 331 331 331 331 331 331 331 331 331 331 331 332 333 333 330 328 327 327 326 326 327 327 327 328 328 327 327 327 328 329 327 327 327 326 326 326 325 325 325 324 324 323 322 321 320 318 317 318 317 316 316 316 316 316 316 315 312 310 311 314 315 316 317 317 317 318 317
335 335 335 335 334 334 334 335 334 334 334 334 334 333 332 333 332 331 331 331 331 331 332 332 332 332 332 332 332 332 332 333 331 329 328 328 328 328 328 328 327 327 327 325 325 326 328 329 328 327 327 328 329 329 329 328 328 328 327 327 327 325 324 323 322 321 319 318 317 317 319 320 320 320 317 310 306 308 311 312 313 314 315 315 315
335 335 335 334 334 334 334 335 334 334 333 333 334 333 333 332 331 331 331 330 331 332 332 332 332 333 332 332 332 332 331 331 332 331 330 330 330 329 330 329 327 326 325 324 325 325 327 328 328 327 327 328 329 329 329 329 329 329 329 328 328 327 327 326 325 324 324 322 320 320 321 322 322 321 317 310 304 304 308 311 313 315 315 314 314
334 334 334 333 333 334 334 334 334 334 333 333 333 333 333 331 330 331 330 330 331 332 333 332 332 331 331 332 331 332 331 331 331 330 330 331 330 330 330 329 328 326 324 325 325 325 325 326 327 328 327 328 328 328 328 328 329 329 330 329 328 328 328 327 326 326 326 325 323 323 322 323 324 323 317 310 307 309 314 318 320 321 321 320 320
334 334 334 333 333 333 333 334 334 333 333 333 332 332 332 331 330 330 330 330 331 331 332 331 331 330 330 330 330 330 330 330 331 330 330 330 330 330 330 330 329 327 325 325 325 325 325 325 326 326 326 326 325 325 326 327 328 329 329 329 329 329 328 328 328 327 326 326 325 324 324 324 324 324 321 317 316 319 322 323 324 324 323 323 323
334 334 334 334 333 332 332 334 334 333 333 333 332 332 332 331 331 331 331 330 330 331 332 331 330 330 329 330 330 330 330 329 329 330 329 329 329 330 329 330 330 328 327 326 326 327 326 326 325 325 325 326 325 325 325 326 326 328 328 328 329 329 329 328 329 328 327 326 326 325 325 325 325 325 325 323 323 324 324 324 324 324 324 324 324
334 334 335 334 334 332 331 333 333 332 333 333 333 333 332 331 331 332 331 330 330 330 331 331 330 329 329 329 329 329 331 330 328 328 329 328 328 329 329 329 329 329 328 328 327 327 328 327 325 326 327 327 326 325 325 325 325 327 328 328 329 329 329 328 328 328 328 327 326 325 325 325 325 325 325 324 324 324 324 324 324 324 324 324 324
334 334 334 334 334 333 332 333 332 332 333 333 334 334 333 332 332 332 332 331 330 330 331 331 330 329 329 329 329 330 330 329 328 328 328 328 328 329 329 329 329 329 328 328 328 328 328 327 327 328 328 327 326 326 325 325 326 326 327 327 328 329 329 328 328 328 328 327 326 325 325 325 326 326 325 325 325 325 325 325 325 324 323 323 323
334 334 334 334 333 333 333 333 333 333 334 334 334 334 334 333 332 333 332 332 331 330 331 331 329 329 329 328 330 330 329 328 329 329 328 329 329 329 329 328 329 329 328 328 328 328 328 328 328 328 328 328 327 327 325 326 326 327 327 327 328 328 328 328 328 327 327 325 324 324 324 324 325 325 325 325 325 324 324 323 320 318 316 317 318
334 334 333 333 333 333 334 334 334 335 335 335 335 335 334 333 333 332 332 332 331 331 332 331 329 330 330 328 330 330 328 328 329 329 330 329 328 329 328 328 329 328 327 327 327 328 328 328 328 328 328 327 327 327 326 326 327 327 326 326 326 327 327 326 326 326 325 324 324 324 325 324 325 325 324 324 324 323 321 318 313 310 308 308 309
333 333 333 333 333 334 334 334 335 335 335 334 335 334 334 334 333 332 332 332 332 332 332 330 330 332 331 330 330 329 327 327 327 328 329 329 329 329 328 328 328 328 327 327 328 328 328 328 328 327 327 327 327 327 326 326 326 325 324 323 323 324 324 323 323 322 323 324 323 323 324 324 324 324 323 321 319 318 315 311 307 305 304 304 304
332 333 333 333 333 333 334 335 336 335 334 334 334 334 335 334 332 333 332 332 332 332 332 330 330 332 331 330 330 328 328 328 327 327 327 329 329 328 327 327 327 327 327 327 327 327 328 328 327 327 327 327 327 326 325 325 324 323 322 321 320 321 320 318 316 317 320 322 322 322 322 322 322 320 317 314 312 310 307 304 303 302 302 301 301
332 332 333 333 333 333 333 334 335 335 334 334 333 333 334 333 333 333 333 332 332 332 332 330 330 331 331 330 329 328 328 327 327 327 327 327 329 328 327 327 327 327 327 327 327 327 327 327 326 326 326 326 326 325 324 324 323 323 322 320 318 317 316 313 311 311 313 316 319 321 320 319 319 315 311 308 306 304 302 301 301 301 302 301 301
333 332 332 333 333 334 334 334 335 335 335 334 333 333 334 333 333 333 332 332 332 332 331 331 331 331 330 330 328 328 328 327 326 327 326 326 327 327 326 326 326 327 327 327 326 327 327 326 326 325 325 325 325 325 324 323 322 321 320 317 313 311 310 309 307 306 307 310 313 317 318 316 314 310 307 306 304 304 304 304 303 302 301 300 300
333 333 333 333 333 333 334 334 334 334 334 334 334 333 333 333 333 332 332 332 332 332 331 331 331 331 330 329 328 328 328 328 327 326 326 326 327 326 325 326 326 326 327 326 326 326 326 325 325 324 324 325 325 324 323 319 316 314 312 309 306 306 306 306 305 305 306 306 308 311 315 316 314 312 312 312 312 312 312 310 307 305 304 304 304
333 333 333 333 333 333 333 333 333 333 333 333 333 333 333 333 333 332 333 332 332 332 332 331 331 330 330 329 329 329 329 328 327 326 326 326 326 325 324 325 325 325 326 326 326 326 326 325 325 324 323 323 323 322 318 312 308 307 306 305 304 305 305 304 304 304 304 304 304 306 309 312 314 314 313 313 312 311 309 307 305 304 305 307 307
332 333 333 333 333 333 333 332 332 331 332 333 333 333 333 333 332 333 333 332 331 331 331 331 331 330 330 330 330 330 329 329 328 327 326 326 326 324 324 325 324 324 325 326 326 325 324 325 325 324 323 322 321 318 311 306 305 305 305 305 305 304 304 303 302 302 302 302 301 302 302 305 307 307 306 305 304 302 301 301 301 301 302 302 303
332 332 332 332 332 332 332 331 330 330 331 332 333 333 333 333 333 333 333 332 331 330 331 331 331 331 330 329 330 329 329 329 329 327 327 326 326 325 324 324 324 324 323 324 325 323 322 323 323 323 323 321 318 313 307 305 305 305 305 305 304 302 302 301 301 301 301 300 300 300 300 300 301 301 301 300 300 300 300 300 300 300 300 300 301
332 331 331 332 332 331 331 331 330 329 330 332 333 333 333 333 333 333 333 332 332 331 331 330 331 331 330 330 330 329 328 329 329 328 327 327 326 324 324 324 325 325 323 323 321 318 319 321 321 321 322 320 314 307 305 306 306 306 305 303 302 301 301 301 302 302 301 301 301 301 300 300 300 300 300 300 300 300 300 300 300 300 300 301 301
331 331 331 330 331 330 330 330 330 329 329 331 332 332 333 333 333 333 333 332 332 332 331 330 331 331 330 330 330 329 328 329 330 329 328 327 325 323 324 323 324 324 324 325 321 314 316 319 317 316 318 315 308 304 306 307 306 305 303 302 301 302 302 303 303 303 303 303 303 302 302 301 301 300 300 300 300 299 300 300 300 300 300 301 301
330 330 330 329 330 330 329 330 329 329 329 330 331 332 332 332 332 332 333 332 332 332 331 330 331 331 330 330 330 330 329 328 329 329 328 327 324 323 324 323 323 323 322 324 321 315 314 316 313 313 313 309 305 305 307 307 306 304 302 301 302 303 304 305 305 306 306 306 306 306 306 305 304 303 301 300 300 299 299 299 299 300 300 300 300
330 329 329 329 330 330 329 330 329 329 329 329 330 330 330 331 331 332 332 332 332 331 330 331 332 331 330 329 330 330 329 329 329 329 328 326 324 323 323 323 322 322 321 321 319 315 315 315 312 312 312 307 304 306 307 307 305 303 302 302 303 304 306 306 307 307 308 308 309 309 309 309 308 307 305 304 303 302 301 301 300 299 299 300 300
330 329 329 329 330 329 329 329 329 329 329 329 329 328 329 330 331 331 331 332 332 331 330 331 332 331 330 329 329 329 329 329 328 329 328 326 325 323 323 323 322 322 321 319 317 314 314 315 313 312 312 308 305 306 308 307 304 303 302 302 304 306 307 307 308 309 309 310 310 310 310 310 310 310 310 309 308 307 307 305 303 302 300 300 299
330 329 329 329 329 328 328 328 329 328 328 328 328 328 328 329 329 330 331 331 331 330 330 330 331 330 330 330 328 328 329 329 328 328 328 327 327 325 323 323 323 322 320 318 316 313 312 313 312 312 312 309 306 307 308 307 305 304 303 303 305 307 307 308 309 309 309 310 310 310 310 310 310 310 310 310 310 310 310 309 308 307 305 303 301
329 329 328 328 328 327 327 328 328 328 327 327 327 327 328 328 328 329 330 331 331 330 330 331 331 330 329 329 328 327 328 327 327 327 327 327 327 326 324 323 323 322 320 318 316 313 312 312 312 312 311 309 307 308 308 308 306 305 304 304 305 307 308 308 309 309 309 310 310 310 310 310 310 310 310 310 310 310 310 310 310 310 309 308 306
329 328 328 328 327 326 326 327 327 327 327 326 325 326 327 327 327 328 329 330 330 330 330 331 331 330 329 328 327 327 328 326 325 325 325 325 326 325 324 324 323 323 320 318 316 314 312 311 312 312 311 309 309 309 308 308 307 306 306 305 306 307 307 308 308 308 309 309 309 309 309 309 309 309 309 309 309 309 309 309 309 309 309 309 309
328 327 327 326 325 325 326 326 326 326 326 325 324 325 326 326 326 326 328 328 328 328 328 330 331 330 329 328 327 327 327 325 325 325 324 324 323 323 323 321 322 321 318 317 317 315 313 312 312 312 312 311 311 310 308 308 307 307 307 307 306 307 307 308 308 308 309 309 309 309 309 309 309 309 309 309 309 309 309 309 309 309 309 309 309
327 327 326 323 322 323 325 325 325 325 325 324 324 323 323 323 324 324 325 326 326 326 327 328 329 330 329 328 327 327 327 326 325 323 321 321 321 320 320 319 319 319 317 316 317 316 315 314 313 312 312 312 311 309 308 308 307 307 308 308 308 308 308 307 307 308 309 309 309 309 309 309 309 309 309 309 309 309 309 309 308 308 308 308 308
327 326 325 322 320 322 324 325 325 324 323 324 323 322 321 322 323 323 324 325 326 325 326 328 329 329 329 328 327 327 327 326 324 321 319 320 319 318 319 318 318 318 317 316 316 316 315 315 314 312 312 312 311 309 309 309 309 309 309 309 309 309 309 309 309 309 309 309 309 309 309 309 310 310 310 309 309 309 309 309 308 308 308 308 308
327 326 325 322 320 321 322 324 324 324 323 322 322 321 320 321 323 323 323 325 325 324 325 327 328 329 329 328 327 326 325 324 322 320 319 319 319 318 318 318 318 317 316 315 315 315 314 314 313 313 313 312 311 309 309 309 309 309 309 309 309 310 310 310 310 310 310 310 310 310 310 309 309 310 310 310 309 309 309 309 308 308 308 308 307
327 326 325 323 321 320 322 323 324 323 322 322 322 321 320 320 321 321 321 323 324 324 325 327 327 327 327 327 325 323 323 321 320 319 320 319 319 318 319 318 318 317 316 315 314 313 313 313 313 313 312 312 310 309 309 309 308 309 309 309 310 310 310 311 311 311 311 311 311 311 310 309 309 309 309 309 310 309 309 308 308 308 308 307 307
326 325 325 323 321 320 321 322 322 322 322 322 321 320 319 319 319 319 320 322 323 324 325 326 325 324 324 324 322 321 321 320 319 319 319 319 319 319 319 319 319 319 318 318 316 314 313 313 313 312 312 311 310 310 310 309 309 310 310 310 310 310 310 310 311 311 311 311 311 311 311 310 310 310 309 310 310 310 309 309 309 309 308 307 307
325 324 324 321 320 319 320 321 322 322 321 321 320 319 318 317 318 319 320 323 324 324 324 325 323 323 322 322 321 321 320 320 320 320 319 319 319 319 319 319 319 319 319 319 319 317 316 316 316 315 313 312 311 311 311 311 311 311 310 310 310 310 310 310 310 312 311 311 311 311 311 311 310 310 310 310 310 310 310 310 309 309 309 308 308
324 324 322 320 319 319 320 321 321 320 320 320 319 318 317 317 318 319 320 322 323 323 323 323 323 322 321 321 321 320 319 319 319 319 319 320 320 320 320 319 320 320 319 319 320 319 319 319 319 318 317 316 316 315 315 315 314 313 311 310 310 310 310 309 310 312 313 312 311 311 312 312 311 310 311 311 311 311 311 311 310 310 309 309 308
322 321 320 319 318 319 319 320 319 319 319 319 318 318 317 318 319 319 320 321 322 322 322 323 322 321 320 320 319 319 318 318 317 317 317 318 318 319 319 319 319 318 318 318 318 318 318 318 318 318 318 318 319 319 319 319 318 317 316 314 313 312 312 311 311 313 314 315 314 312 312 313 312 310 311 311 312 312 311 311 311 310 310 309 309
321 320 319 318 317 318 318 318 318 319 319 319 319 319 318 318 319 319 319 320 321 321 322 322 321 320 319 318 318 317 317 316 316 316 316 316 317 317 318 318 318 318 318 318 318 318 318 318 318 318 318 318 319 319 319 319 319 320 319 318 318 317 316 315 315 316 317 317 317 314 313 314 313 310 310 312 313 312 312 312 312 311 310 310 309
320 318 317 317 317 317 317 317 317 317 318 319 320 319 319 319 319 319 319 320 320 321 320 320 319 319 318 318 318 319 319 318 318 318 318 318 319 319 319 319 319 320 320 319 319 319 318 318 318 318 319 319 319 319 319 319 319 320 320 319 319 319 319 318 318 319 318 318 319 316 314 317 316 312 312 315 316 315 315 314 314 313 312 310 309
318 317 316 316 316 316 316 316 316 316 316 316 317 319 319 319 319 319 319 320 320 321 321 320 320 320 319 319 320 320 320 320 320 320 320 321 321 320 321 321 321 321 320 320 319 319 319 319 318 319 319 319 319 319 319 319 319 320 320 319 317 317 318 318 318 319 318 318 319 316 314 316 317 315 315 317 317 317 317 316 316 315 314 313 311
316 315 315 315 315 315 315 315 316 316 315 315 316 317 317 318 319 319 319 320 320 321 321 320 320 320 320 320 319 318 317 318 320 320 320 320 320 321 321 321 321 321 320 320 320 319 319 319 319 319 319 318 318 318 319 319 318 318 319 318 316 316 316 317 317 318 318 318 318 316 314 315 317 316 316 317 317 317 316 316 315 315 314 313 312
313 313 313 312 312 313 313 314 315 315 315 316 316 316 316 316 316 316 317 318 319 320 320 320 320 320 320 319 317 317 317 318 319 319 317 317 318 320 319 319 319 319 319 319 319 319 318 317 317 317 317 316 315 314 314 313 313 315 317 318 317 317 317 316 316 317 317 317 317 315 314 315 317 316 316 316 315 314 314 314 314 314 313 311 310
310 310 310 309 309 309 310 311 312 313 314 314 316 316 316 315 314 314 315 317 318 318 318 319 319 319 319 319 318 318 319 319 318 318 317 317 317 317 316 316 315 315 314 314 315 315 314 313 312 311 310 309 307 306 305 305 305 309 313 315 316 317 316 316 315 316 316 316 315 315 314 315 315 314 314 314 312 310 309 309 310 310 310 309 308
306 306 307 307 306 306 306 306 308 309 310 311 313 315 315 315 314 313 314 314 314 313 314 316 317 317 318 318 317 317 317 316 316 316 315 315 315 314 313 312 311 309 308 307 306 306 306 305 304 303 302 302 302 302 303 303 304 306 308 311 313 315 315 316 315 315 315 315 314 314 313 313 312 311 311 310 309 308 307 307 307 307 308 308 306
Wind_Speed
17 16 14 13 12 11 9 9 10 11 10 11 11 11 11 9 9 8 6 5 5 7 9 8 6 4 5 8 9 10 10 10 11 12 12 13 14 14 12 12 12 12 11 11 11 11 10 9 9 9 9 10 10 10 11 10 10 11 11 11 12 12 12 12 12 11 12 12 12 13 14 14 14 14 13 13 13 12 12 12 11 11 12 12 11
18 17 16 15 14 12 11 10 10 11 10 9 10 9 8 7 7 5 5 5 4 7 10 8 6 5 4 6 9 11 11 11 11 12 13 13 14 14 11 11 13 12 11 11 10 10 9 9 9 9 8 10 10 10 10 10 10 11 11 11 11 11 12 11 11 10 11 12 12 12 13 13 13 14 13 13 13 13 13 12 11 11 12 12 11
19 19 18 17 15 13 11 10 9 9 9 8 6 5 5 5 7 7 6 6 5 7 8 7 7 6 5 6 10 13 13 12 13 13 12 12 13 14 12 12 14 13 11 11 10 10 9 8 8 8 8 9 9 9 9 9 9 10 11 11 11 10 11 11 11 10 10 12 12 12 12 12 13 13 13 13 13 13 13 13 13 13 13 12 12
20 20 19 16 14 12 11 11 9 9 10 9 6 7 8 8 9 10 8 6 6 6 7 8 9 8 7 9 12 15 14 13 13 12 11 11 12 13 13 13 14 13 11 11 12 11 9 8 7 7 8 9 9 8 9 9 9 10 10 10 9 10 11 11 10 10 10 11 12 11 11 11 12 12 12 12 14 14 13 13 14 14 13 13 13
20 20 18 15 13 14 13 13 11 10 11 11 10 10 11 11 10 11 9 7 6 7 8 10 11 10 10 11 14 16 15 13 12 12 11 12 12 12 13 14 14 12 11 11 11 10 9 8 8 7 8 8 9 8 8 9 9 9 10 9 8 9 10 9 10 10 10 10 10 11 11 11 12 12 12 13 14 14 13 13 13 13 13 14 14
20 19 18 15 14 16 16 15 13 13 13 12 11 10 11 11 9 9 9 8 8 9 11 12 12 11 12 13 15 15 14 13 12 12 12 12 11 12 13 14 15 13 11 10 9 8 8 8 7 7 7 8 8 9 8 8 8 8 9 9 8 9 10 9 9 10 10 10 10 10 11 11 12 11 12 12 13 13 13 13 12 13 13 13 14
20 18 18 15 15 17 17 15 15 15 15 12 11 12 12 10 8 8 10 11 10 11 11 12 13 12 12 15 15 15 14 13 13 13 12 12 12 11 12 14 15 14 12 10 8 6 6 8 7 7 8 9 9 9 9 9 8 9 9 9 9 9 9 8 8 9 9 10 9 9 10 10 11 10 11 11 12 12 12 12 12 13 13 13 14
19 18 18 16 16 17 17 16 16 17 16 13 13 14 13 11 7 8 11 13 12 12 12 13 13 12 13 15 16 15 15 14 13 13 13 12 12 11 12 13 14 13 12 10 7 5 6 8 9 8 9 10 11 10 9 9 10 10 10 10 10 9 9 8 8 9 9 9 9 9 10 10 10 9 10 10 11 11 11 11 12 12 12 13 13
19 18 18 17 17 17 17 16 16 16 16 15 14 12 12 11 9 10 12 12 14 14 15 15 14 13 12 14 14 14 14 14 14 13 13 13 12 11 11 12 12 11 10 8 6 5 5 8 10 9 9 10 11 11 10 10 11 11 12 12 12 11 10 9 9 9 8 8 9 10 10 10 10 9 10 10 10 11 11 11 11 11 12 12 12
19 18 18 17 16 16 17 16 16 16 16 16 14 11 10 11 11 12 12 12 15 17 17 16 15 14 12 12 12 12 12 13 14 14 13 12 11 11 11 10 10 9 8 7 6 5 6 9 11 10 9 8 8 8 8 9 9 9 10 11 12 12 11 11 10 9 8 8 9 9 10 9 9 9 9 9 9 10 11 11 11 11 11 11 11
17 17 17 17 16 16 17 17 17 17 17 16 15 12 10 10 11 14 14 14 16 18 19 17 15 14 13 12 10 10 11 11 13 14 13 12 11 11 11 10 9 8 7 7 6 6 6 8 9 10 9 7 5 5 6 6 6 6 7 8 8 9 10 11 11 11 9 9 9 10 11 10 8 8 8 8 9 10 11 11 11 11 11 10 10
16 17 17 16 17 17 17 17 17 17 17 16 17 15 13 12 13 17 19 17 17 19 19 18 16 14 13 12 10 9 9 10 11 12 12 12 11 12 12 10 9 8 7 7 7 6 6 6 7 9 8 6 5 4 5 5 5 6 5 6 7 7 7 8 10 10 10 11 12 13 14 12 8 8 8 8 10 11 11 12 12 12 12 11 10
16 17 18 17 17 17 17 17 18 17 15 14 16 16 17 18 19 20 20 20 20 20 20 21 18 15 12 12 11 9 8 9 9 8 8 10 10 11 11 10 10 9 9 8 7 6 6 6 7 8 7 6 5 5 4 4 5 5 6 6 7 7 7 6 7 8 9 9 11 12 13 12 9 8 9 10 11 13 13 13 12 12 12 11 11
16 16 18 18 17 16 17 17 18 17 15 14 14 14 18 21 22 22 20 20 21 22 23 20 15 13 12 10 9 9 8 7 7 5 5 7 8 8 9 10 10 10 10 9 8 7 7 7 8 8 8 7 6 5 5 4 5 5 5 6 7 8 8 7 6 6 8 8 8 9 10 9 9 8 9 11 12 12 11 11 10 9 9 9 9
16 15 16 17 16 16 17 18 18 16 16 16 15 15 19 21 22 22 20 19 20 23 24 18 16 16 12 6 3 4 5 5 5 4 4 5 6 7 8 10 10 11 10 9 9 9 8 7 7 8 7 6 5 5 5 5 5 5 5 5 6 8 8 7 7 6 6 6 6 7 6 6 7 8 8 9 10 8 7 6 6 6 6 6 6
17 15 16 16 16 15 16 17 16 15 15 16 17 18 20 21 23 23 22 20 18 21 20 14 18 19 10 4 2 2 2 3 5 5 4 5 5 7 8 10 10 11 10 9 8 8 8 8 7 7 6 5 5 5 5 6 6 6 5 4 6 8 9 8 7 6 5 5 5 5 4 5 6 7 8 7 6 5 4 4 4 6 7 7 7
16 15 15 15 14 14 14 15 15 14 14 15 17 18 19 21 24 22 22 22 20 22 16 10 17 19 12 8 4 0 1 4 6 5 4 7 6 6 7 9 10 10 11 10 8 8 9 9 8 7 7 6 5 4 4 5 5 5 5 6 6 7 8 8 7 6 6 5 4 3 4 6 7 8 7 7 6 6 7 7 7 8 9 9 8
16 15 14 13 12 13 14 15 15 15 14 15 17 18 19 20 22 21 21 21 23 24 16 14 20 15 11 11 5 2 7 9 5 2 4 7 6 7 8 9 9 9 11 11 11 10 10 9 8 8 8 7 5 3 4 5 6 5 6 8 9 9 8 8 7 7 7 6 5 5 6 7 8 8 8 8 9 10 9 9 8 8 8 8 8
15 14 13 13 12 13 14 15 15 15 15 17 18 19 20 19 19 20 21 21 24 25 18 20 23 12 11 13 4 5 15 14 7 3 4 4 5 8 9 9 9 8 9 11 11 11 11 10 9 9 9 7 5 4 4 6 7 8 9 11 12 12 11 11 10 9 8 8 8 9 10 10 10 10 10 10 10 8 8 8 8 7 7 8 7
14 14 13 14 13 13 14 15 16 15 16 19 19 19 20 19 17 18 21 21 23 25 22 25 24 13 13 13 6 9 18 15 12 11 6 2 4 6 7 9 9 9 9 10 10 10 9 9 10 10 9 8 6 5 6 8 10 11 12 13 13 13 12 11 10 10 11 10 9 10 11 11 11 11 10 9 8 7 7 7 7 7 7 7 7
14 14 14 15 14 13 13 15 16 16 16 17 18 18 19 19 17 18 20 20 22 24 23 27 26 16 14 12 8 15 16 11 15 16 9 5 4 4 6 8 8 9 9 9 9 9 9 10 10 9 8 8 7 7 9 11 12 13 13 12 12 11 10 9 9 11 13 12 10 10 10 10 10 9 8 7 7 7 7 7 7 7 7 8 8
15 15 15 16 16 13 13 15 17 16 15 16 17 18 19 19 18 18 18 19 21 22 22 27 25 18 15 14 16 20 14 9 14 15 10 6 4 5 9 9 7 8 9 10 10 10 11 12 10 8 7 8 8 10 12 12 12 12 11 10 9 8 8 7 8 10 12 12 12 10 9 9 8 7 7 7 7 7 7 8 8 8 8 8 8
16 16 17 17 16 13 13 15 16 16 16 16 17 18 18 19 18 17 17 18 20 20 21 24 23 18 16 16 21 23 17 14 18 18 14 9 6 7 10 11 10 10 11 11 12 12 13 12 10 8 8 9 10 12 13 12 11 11 9 8 7 7 7 7 8 9 9 10 10 9 8 8 7 6 6 7 7 8 8 9 9 8 8 8 8
16 18 19 18 16 15 15 15 16 17 17 17 18 18 17 18 18 17 17 17 18 19 21 21 20 18 16 17 21 23 19 19 23 23 19 17 15 9 10 12 9 8 12 13 12 14 14 13 10 9 9 11 12 13 12 11 10 10 9 8 7 8 8 8 8 8 8 8 8 8 8 7 7 7 7 8 8 9 9 9 9 9 9 9 9
20 21 20 19 18 17 17 17 17 16 16 17 19 18 18 19 18 17 16 16 17 19 20 19 18 18 17 18 20 19 17 18 21 22 20 22 21 13 11 13 8 8 12 13 13 13 14 14 11 9 10 11 12 12 11 10 10 10 9 9 8 8 7 7 6 6 6 7 7 7 7 7 7 7 7 8 8 8 8 8 8 8 9 9 9
23 22 20 19 19 18 17 16 16 16 16 18 19 18 18 19 18 17 16 15 16 18 18 18 18 18 16 16 18 18 16 15 19 22 21 23 23 18 14 10 8 10 11 12 14 12 12 14 13 11 10 10 11 11 10 11 11 10 9 9 9 8 7 7 6 6 6 5 5 6 6 6 6 6 6 6 6 6 6 6 6 6 6 6 6
22 20 19 20 20 19 18 17 16 17 17 17 19 19 18 18 17 17 16 15 15 16 17 18 18 18 16 15 17 17 16 16 19 21 21 22 25 25 21 11 5 7 8 10 13 11 11 14 14 14 12 10 11 11 11 11 11 10 10 9 9 9 8 7 7 7 6 6 6 5 5 5 5 5 5 5 5 5 5 5 4 4 4 4 4
21 21 20 20 20 19 18 17 17 16 16 17 19 19 18 17 16 17 17 15 15 15 16 17 17 16 15 15 15 16 15 18 21 20 20 22 25 28 27 20 11 6 4 6 8 7 12 15 14 14 13 11 11 12 11 12 11 10 10 9 9 9 9 8 8 7 7 7 6 6 6 5 5 4 5 5 5 5 4 4 4 4 4 4 4
22 22 21 21 20 19 18 18 17 16 15 16 18 19 18 16 16 18 17 15 14 14 15 16 16 15 15 15 15 15 15 18 20 19 20 22 25 28 29 26 20 11 4 4 5 7 13 16 13 13 14 13 13 13 12 11 11 10 10 10 9 9 9 9 8 7 7 7 6 6 6 6 5 5 5 5 5 5 5 4 4 3 3 3 3
23 22 21 21 20 18 18 18 17 16 16 16 17 17 17 16 16 17 17 15 14 13 14 16 16 15 15 15 14 14 15 17 18 18 20 23 25 29 28 24 19 15 12 7 4 10 17 17 13 13 15 16 14 13 12 11 11 11 10 10 10 10 10 9 9 8 7 7 6 7 6 6 6 6 5 5 5 5 4 4 3 3 3 3 3
22 22 21 21 21 20 19 19 17 17 16 16 16 16 15 15 16 17 17 15 14 13 14 16 16 14 14 14 14 14 15 15 17 19 21 22 23 27 27 23 17 14 18 15 6 10 20 20 16 14 15 17 16 15 13 12 11 11 11 11 11 11 11 10 10 9 8 8 7 7 6 6 6 6 5 5 4 4 3 3 2 2 2 2 2
23 23 22 22 22 21 20 19 18 18 17 16 16 15 14 15 16 17 16 15 14 13 14 16 15 14 15 15 14 15 15 15 17 20 22 23 22 24 25 24 19 13 16 18 10 9 19 22 18 15 15 17 17 16 14 13 13 12 12 12 13 13 12 11 11 10 9 9 8 7 6 6 5 5 4 4 3 3 2 1 1 1 1 2 2
25 25 23 22 22 21 19 19 19 19 18 17 16 15 16 16 16 16 15 15 14 14 14 16 15 15 16 15 14 16 16 15 16 18 21 22 22 24 24 24 24 18 17 19 13 10 14 18 17 15 15 18 18 17 15 14 14 14 14 14 15 15 14 13 12 12 11 11 9 8 7 7 6 5 4 4 3 2 2 1 1 1 2 3 3
26 25 23 24 23 21 20 19 19 18 17 17 17 16 17 17 16 16 16 15 15 15 15 15 15 15 16 16 15 16 16 14 13 14 16 18 20 25 25 24 26 23 21 22 18 14 15 16 17 17 17 19 19 18 18 16 15 15 16 16 17 17 16 15 14 13 13 12 11 10 9 9 8 8 7 6 6 6 5 5 4 4 4 4 5
25 23 23 24 23 21 21 19 18 18 18 16 16 16 17 17 16 17 16 16 15 15 15 15 16 16 16 16 16 16 15 14 13 11 13 15 17 21 22 21 25 25 23 25 22 18 17 16 17 19 20 20 19 18 18 18 16 15 16 16 17 18 18 17 16 16 15 15 14 13 12 12 12 12 11 10 10 9 9 8 8 7 7 7 7
25 23 24 22 21 22 22 19 18 19 19 17 15 15 15 14 16 17 17 16 16 15 15 15 17 17 17 17 16 16 15 15 13 10 11 12 12 15 17 16 19 22 24 26 23 21 20 19 20 22 21 20 18 17 18 19 18 17 16 16 17 18 19 19 19 18 17 17 17 16 16 15 15 15 14 14 14 13 13 13 12 11 11 10 10
25 25 24 20 19 21 21 18 18 18 17 17 15 14 12 12 14 17 18 17 16 15 14 15 17 17 17 16 17 16 15 14 11 7 7 9 9 11 14 12 13 19 23 22 21 20 20 21 22 22 21 20 18 18 19 21 20 19 18 18 18 19 20 21 21 21 20 20 20 20 20 19 18 18 18 18 18 17 17 16 15 14 14 14 13
26 26 23 20 19 20 20 18 17 16 15 16 16 14 12 11 13 16 19 18 16 14 13 14 16 17 16 16 16 15 13 11 10 8 6 6 9 13 15 13 15 20 21 20 20 18 18 20 22 22 22 22 20 19 20 22 22 21 21 21 21 21 21 22 23 23 23 23 24 24 24 23 22 22 22 22 21 21 21 20 19 18 17 17 16
26 26 22 20 21 21 20 19 17 16 15 16 18 16 12 12 14 16 17 18 16 13 13 14 15 16 16 16 15 13 10 8 10 11 9 8 10 13 14 13 14 17 18 18 19 18 18 19 20 21 23 23 22 20 20 22 23 22 22 22 24 24 25 25 26 25 25 26 26 27 27 27 26 26 25 26 26 25 25 24 23 22 20 19 18
26 25 23 22 23 22 21 19 18 18 17 17 18 16 13 13 14 12 12 14 15 14 13 13 13 14 15 15 12 10 10 11 12 12 9 8 9 11 14 14 14 14 15 15 17 19 18 18 19 21 21 22 23 20 18 20 23 23 24 26 26 26 26 26 27 27 28 29 29 30 31 30 30 30 30 31 30 30 30 29 27 26 24 23 21
27 25 23 23 23 23 21 19 19 19 18 18 18 15 13 13 12 9 9 14 17 17 16 16 15 14 14 13 12 11 12 13 12 11 10 9 9 11 12 12 12 13 12 11 13 17 17 16 16 18 18 20 22 20 17 20 24 26 27 27 28 29 28 28 30 30 30 31 31 33 34 33 33 33 33 34 34 33 33 32 31 30 28 26 24
28 25 24 23 23 23 21 20 20 19 17 18 18 16 13 12 12 10 10 16 20 19 19 18 17 15 13 13 13 13 13 12 11 10 10 9 9 10 9 8 9 10 10 10 8 10 12 11 10 13 15 17 19 20 18 20 23 25 26 27 28 30 28 27 29 30 30 31 33 34 35 35 35 35 36 36 35 34 35 35 34 33 30 28 27
27 25 24 24 23 23 22 21 21 19 18 19 19 17 14 12 13 12 13 19 22 20 20 19 18 17 16 15 15 14 12 12 11 10 10 9 9 8 7 6 6 6 6 7 7 6 6 7 5 5 7 9 10 11 11 12 15 18 23 26 28 29 27 23 23 25 26 26 30 34 34 35 36 37 38 38 36 36 36 35 34 34 33 30 28
28 26 25 25 24 25 24 23 22 20 19 19 19 18 16 14 13 14 17 20 21 20 20 20 19 18 18 17 16 14 13 12 11 10 9 9 8 7 6 5 4 3 3 3 3 2 1 1 1 1 2 3 4 4 4 5 6 8 13 17 20 23 24 21 18 17 17 17 20 27 30 30 32 36 37 36 35 36 36 35 35 35 34 32 31
27 26 27 27 27 27 26 25 24 22 20 19 18 18 16 14 14 15 17 19 20 20 21 22 21 20 19 18 16 14 12 11 10 10 9 9 7 6 5 4 3 3 3 3 3 3 3 2 3 4 4 6 7 7 7 8 9 10 10 12 15 16 17 17 16 15 15 14 15 19 22 24 26 30 32 29 28 31 32 31 32 33 34 34 33
29 29 29 29 28 28 27 26 25 24 22 20 18 18 17 15 15 15 16 18 19 20 20 21 20 19 18 18 16 14 13 12 11 11 10 9 7 5 4 3 3 2 2 2 3 3 3 4 5 5 5 7 9 10 10 10 12 13 14 15 15 13 12 12 13 15 15 15 16 16 17 21 22 25 26 22 20 24 25 25 26 28 30 32 33
31 31 31 30 29 27 26 26 26 24 22 20 19 20 19 18 18 18 19 20 20 20 20 20 19 18 17 16 15 14 12 11 11 10 8 7 5 3 2 1 1 3 4 5 5 5 5 6 7 8 8 9 11 13 13 12 12 13 14 13 10 10 11 12 15 16 15 17 18 15 15 19 20 20 23 22 19 21 22 22 23 25 26 28 29
33 32 31 29 28 26 25 25 25 23 20 19 19 20 20 20 20 21 21 22 22 22 21 20 18 17 15 13 12 11 8 7 8 7 5 4 3 2 1 1 2 3 5 5 6 6 6 7 8 9 10 10 11 12 13 12 12 11 12 12 10 11 14 18 20 22 19 18 17 14 16 20 20 20 24 23 21 22 22 22 24 25 27 28 28
33 32 30 28 26 25 24 23 23 22 19 17 18 19 19 19 18 19 19 20 21 21 20 18 16 15 14 12 11 11 10 8 7 5 4 4 4 3 2 1 2 3 4 5 6 6 7 8 8 9 10 11 12 13 13 12 12 11 11 12 13 13 14 15 17 19 19 18 17 13 16 18 17 18 21 21 18 18 19 21 24 26 27 28 28
33 32 30 28 26 24 23 22 21 21 19 16 15 17 18 18 18 18 19 19 19 16 13 13 13 13 13 13 12 12 13 11 8 7 6 5 6 5 3 2 3 4 6 7 8 8 9 9 10 11 12 13 13 14 13 13 12 12 11 11 12 13 14 14 15 18 20 19 16 13 13 14 12 11 14 14 11 9 11 14 16 20 22 24 24
33 32 31 30 27 25 23 22 20 20 19 17 14 14 15 16 17 18 18 18 16 11 7 9 11 11 13 14 12 11 11 10 8 7 5 4 4 4 3 3 4 6 8 9 10 11 11 12 12 12 12 11 12 12 12 11 11 10 10 10 9 10 14 16 17 17 14 9 7 7 9 11 11 9 9 8 5 5 9 11 11 12 14 16 16
Wind_Direction
164 163 164 164 164 161 150 141 142 142 141 144 149 152 155 152 148 152 171 206 224 204 195 183 173 154 157 182 184 171 158 148 143 141 138 138 141 142 143 141 133 129 126 124 123 125 125 125 127 127 127 125 123 121 117 112 110 108 106 105 103 101 99 97 97 97 97 95 91 94 95 94 96 94 90 87 83 86 86 79 77 74 72 73 75
162 162 163 164 166 165 157 152 149 146 141 138 143 147 150 154 163 184 209 221 209 188 195 188 173 178 174 186 189 175 164 155 149 146 140 139 142 143 146 143 133 129 127 127 129 127 126 127 128 128 129 127 124 123 122 119 119 115 110 109 108 107 106 103 101 97 97 97 91 92 97 96 96 95 94 91 86 87 86 81 81 79 76 75 75
163 162 164 165 168 172 170 170 168 164 156 143 149 162 176 193 193 198 201 195 174 165 184 189 181 185 187 191 183 170 163 157 152 149 142 141 146 147 148 141 132 129 133 136 131 124 122 122 122 124 121 121 124 125 126 126 123 118 116 115 114 113 109 103 99 96 96 99 96 94 97 98 98 96 95 95 92 89 87 84 81 80 77 75 75
169 165 165 168 175 180 183 182 178 180 171 154 151 159 181 193 179 181 186 178 167 154 167 188 189 181 175 181 176 167 163 159 154 150 145 146 150 150 147 139 132 135 140 133 124 121 121 113 110 122 126 127 132 135 134 132 127 122 119 116 116 114 108 102 100 96 94 96 98 97 95 96 97 96 97 102 101 93 88 87 85 83 80 77 76
176 171 170 174 182 187 188 185 181 180 171 160 149 150 181 193 174 182 194 180 165 155 167 183 186 177 171 174 172 169 165 159 155 151 149 151 153 153 149 142 140 144 136 123 121 125 128 113 94 103 126 136 138 137 134 128 125 124 121 116 113 111 108 107 106 101 97 97 99 98 95 93 91 87 88 97 100 95 92 90 87 87 86 84 79
181 177 176 178 185 189 189 188 184 176 165 159 147 151 187 191 166 176 181 168 162 159 167 176 180 179 176 175 172 171 168 161 158 155 154 154 154 153 150 148 147 144 136 135 139 137 139 127 96 86 109 130 135 132 128 124 123 123 122 120 116 113 111 110 109 105 104 104 102 99 99 100 98 92 89 93 96 97 95 92 88 87 87 87 84
185 181 178 181 186 189 191 191 188 179 171 162 153 161 180 173 157 167 162 156 158 161 169 170 173 175 171 171 170 170 169 165 163 160 159 157 154 152 151 153 152 149 149 156 161 154 148 132 113 97 100 116 123 121 122 120 119 120 121 122 118 113 110 109 109 107 106 108 109 106 101 100 103 102 99 97 97 98 96 94 92 88 84 85 84
187 184 180 182 186 188 188 188 186 181 177 170 161 168 176 166 167 179 163 154 154 161 169 166 165 165 160 164 169 171 169 167 166 164 164 162 156 152 155 157 158 158 159 164 168 160 148 134 127 119 110 114 118 120 123 117 112 114 115 115 114 112 111 111 110 109 107 109 111 109 103 100 102 101 100 99 97 97 94 91 91 89 87 86 83
188 184 182 183 186 187 185 184 185 181 182 178 162 162 173 164 163 178 174 162 157 160 163 165 165 159 150 155 165 169 169 169 170 170 170 166 162 160 162 164 166 167 165 165 164 159 155 144 140 134 126 121 120 122 122 118 113 113 113 110 108 108 110 110 108 109 110 108 107 107 106 102 99 96 96 99 99 98 98 94 92 91 89 87 84
187 185 186 187 186 185 182 181 183 183 186 181 160 153 168 165 162 174 181 170 164 165 163 162 159 149 140 143 156 167 171 173 174 175 175 171 170 170 170 170 170 169 167 163 160 164 164 154 151 149 143 138 132 128 125 124 120 117 115 111 106 103 105 107 106 108 111 111 110 108 105 98 93 91 90 94 100 103 102 100 97 93 90 87 87
189 188 189 189 187 185 183 182 184 185 186 175 157 153 160 163 167 173 178 176 173 171 165 158 151 143 138 136 148 165 171 175 179 181 181 182 181 182 182 175 170 172 167 161 159 164 165 159 159 158 158 161 155 150 151 149 146 141 129 120 117 113 111 108 104 103 106 107 109 108 105 100 90 83 83 91 98 102 102 100 97 93 90 87 85
191 188 188 188 187 186 186 184 184 185 183 171 158 156 157 165 179 174 169 169 171 171 166 158 145 134 132 133 142 161 169 173 184 186 185 193 198 198 195 181 174 177 168 162 163 165 162 160 164 168 173 176 169 161 160 163 170 175 164 145 143 141 133 121 109 104 101 98 100 104 105 102 92 77 81 95 100 103 103 99 95 90 85 81 79
195 190 189 187 184 186 188 186 185 184 184 175 160 156 160 169 177 174 168 165 164 168 167 155 138 125 123 120 122 140 162 171 186 190 181 193 203 205 201 185 178 181 173 169 171 169 162 158 164 171 173 172 171 166 162 169 178 184 185 175 166 159 156 146 130 114 103 97 98 105 109 108 101 85 83 95 102 104 102 97 91 86 81 75 70
200 196 193 188 184 186 188 189 189 186 184 175 159 157 165 170 169 170 174 169 162 165 164 152 137 133 130 114 104 119 137 152 173 187 183 193 196 200 200 186 180 182 178 179 183 179 168 164 166 168 172 176 180 178 175 179 175 177 189 193 186 176 172 167 156 139 120 111 109 113 116 116 115 108 98 100 106 105 101 94 88 88 88 83 75
203 200 194 191 189 191 190 190 190 186 181 169 158 165 170 169 168 170 174 168 162 165 167 159 145 138 129 120 108 108 116 121 131 146 179 201 194 196 197 188 186 187 185 190 195 186 174 175 178 177 178 180 183 185 183 180 175 176 183 192 192 186 183 176 168 162 145 135 133 129 128 130 134 134 123 114 114 111 104 96 90 88 90 93 90
205 203 197 192 192 197 193 189 188 183 179 166 163 174 173 170 173 175 173 168 166 169 171 171 161 148 128 103 80 75 129 118 103 114 159 183 188 199 195 185 186 188 190 198 201 185 175 182 185 183 182 177 178 180 178 175 172 173 174 179 183 183 184 181 176 173 161 154 152 147 151 153 148 148 144 134 128 123 119 112 100 92 90 96 103
207 206 203 198 196 200 191 186 184 176 172 168 170 177 174 174 179 179 177 173 170 171 173 192 184 167 150 135 114 9 193 129 118 116 152 166 175 187 182 178 182 186 190 193 193 180 176 184 185 185 187 184 181 176 170 166 159 159 162 159 161 167 171 169 169 166 157 152 147 151 173 169 151 144 144 138 124 116 117 115 113 109 105 108 115
212 210 207 204 200 196 186 181 176 167 170 175 174 173 173 181 185 183 184 179 171 172 181 198 190 180 173 163 147 188 163 140 132 125 144 158 170 173 172 174 179 190 189 181 178 177 178 185 188 190 195 196 193 181 171 160 148 149 151 147 145 146 148 142 138 141 137 126 112 118 141 156 154 146 138 132 123 117 117 118 121 122 119 120 125
215 213 207 201 193 185 182 178 171 169 178 180 176 175 177 184 189 189 190 186 176 176 186 190 186 196 206 195 227 207 167 155 155 151 136 150 161 168 179 180 178 188 186 171 171 179 179 183 190 196 201 202 199 189 175 158 147 146 142 138 135 133 130 125 124 126 121 113 109 112 122 134 143 142 138 137 133 128 128 128 126 124 119 118 119
213 208 198 189 182 178 179 176 174 179 184 184 182 182 183 186 192 195 193 192 187 184 186 186 187 197 201 205 237 189 170 166 164 153 136 128 144 159 181 181 177 180 180 175 177 179 177 181 190 196 198 196 193 182 164 151 145 142 138 135 133 131 130 130 134 134 128 123 120 120 125 131 137 141 142 143 143 140 137 132 126 121 116 113 110
203 196 186 181 178 176 177 177 181 185 186 187 186 184 187 188 191 195 196 196 196 194 190 187 191 195 191 194 176 159 160 164 160 149 136 140 145 150 165 169 173 176 179 182 180 178 179 186 193 193 191 186 179 166 154 148 145 142 140 137 134 134 139 145 149 146 143 142 137 133 135 135 136 144 146 143 140 136 130 124 118 115 112 110 109
191 188 186 185 181 179 180 184 189 189 186 185 184 183 187 190 193 196 199 199 197 198 197 192 194 199 195 186 160 152 150 148 156 151 138 136 133 147 160 163 165 171 177 179 178 178 178 183 185 178 173 168 163 159 153 148 145 144 143 140 139 144 151 155 152 148 149 148 142 138 136 133 134 141 144 139 134 128 122 118 115 113 112 110 109
191 191 191 187 183 182 185 188 191 190 187 183 182 186 190 192 194 196 198 201 197 197 198 195 197 199 199 193 174 168 167 165 167 162 151 144 137 146 163 163 160 165 173 174 173 173 174 178 176 164 161 161 157 157 154 150 148 148 150 148 149 154 157 159 158 152 147 144 139 133 132 132 132 133 133 127 120 114 112 113 114 112 109 106 103
193 188 185 183 181 181 181 182 183 183 185 187 188 191 193 192 193 193 196 200 199 198 196 194 196 196 197 197 186 180 180 177 175 171 165 158 151 148 160 159 154 163 172 171 169 172 175 180 175 162 162 163 161 161 161 160 156 152 153 152 151 152 155 157 157 152 146 144 141 132 127 126 123 122 119 115 113 112 114 117 117 112 107 103 100
184 179 178 181 181 179 178 177 179 181 185 189 191 190 190 190 191 193 196 198 200 201 200 197 198 198 195 195 191 187 187 186 182 178 170 158 152 147 155 159 152 157 170 172 170 173 180 186 183 172 170 170 170 171 171 166 159 153 152 150 150 152 153 154 152 152 152 152 151 147 141 136 131 130 128 126 127 127 128 126 122 118 115 112 111
178 178 179 181 182 179 179 179 180 183 185 188 190 187 188 190 193 196 195 196 200 202 205 204 202 201 197 196 197 196 196 196 190 183 174 164 158 153 150 153 147 152 165 175 172 173 184 197 201 193 184 183 182 181 178 170 159 156 157 154 154 155 154 154 150 148 149 153 157 158 157 154 149 149 147 142 141 139 137 133 126 124 123 124 128
178 180 180 181 182 181 182 180 175 176 181 187 190 189 189 190 194 197 194 194 196 197 202 203 201 202 200 198 200 202 205 203 195 191 184 176 170 163 155 146 137 153 164 172 175 182 191 196 204 204 198 194 191 185 179 173 163 160 164 164 163 161 158 154 148 144 143 144 145 144 146 150 151 156 156 152 149 147 148 147 143 138 135 140 141
178 179 180 181 181 181 182 179 173 172 177 185 190 189 188 188 190 194 193 193 193 194 198 199 200 202 202 200 199 200 202 198 194 195 194 186 178 171 165 159 155 158 164 166 169 185 195 191 193 204 205 196 188 185 181 176 170 168 170 173 171 163 156 150 143 141 139 136 135 132 131 134 140 148 153 156 156 156 157 157 153 150 150 153 152
176 177 178 177 176 177 179 178 173 172 173 178 185 187 185 186 186 189 192 194 196 198 200 199 199 201 201 200 199 195 192 191 193 197 197 191 182 177 175 171 163 154 151 177 174 178 189 192 190 195 200 196 185 182 185 180 175 176 177 178 175 163 155 151 145 141 139 137 133 131 131 135 142 150 156 159 159 158 159 158 155 156 163 169 170
175 176 177 177 176 175 176 175 171 170 170 173 179 181 182 185 186 188 192 195 198 201 203 200 196 198 199 199 199 196 190 191 196 197 194 192 186 182 182 180 172 162 158 165 188 189 188 192 195 191 190 191 187 182 186 185 181 182 183 179 176 168 161 156 155 152 149 148 145 142 142 141 144 147 153 157 158 158 155 152 153 159 173 185 187
175 177 178 177 176 173 172 173 172 170 169 172 174 174 177 183 187 190 194 196 197 197 201 200 197 196 197 196 197 194 189 189 193 194 192 191 188 186 188 191 189 179 169 161 164 201 195 194 199 197 189 187 185 183 185 187 187 186 186 184 180 177 174 170 170 169 167 166 165 162 158 153 152 151 150 151 149 148 142 139 151 168 189 205 213
177 176 175 173 172 171 173 176 176 173 172 176 175 172 174 179 184 189 192 194 195 195 196 198 199 196 193 192 192 191 190 188 188 192 194 194 193 192 193 197 199 198 185 173 165 189 198 199 202 201 192 186 185 187 188 188 190 192 192 191 189 187 186 185 185 185 185 186 184 182 180 176 174 169 164 161 151 144 137 128 156 206 233 246 257
177 175 174 174 171 172 174 175 174 173 175 176 174 173 172 172 175 181 184 188 192 194 193 197 200 195 193 193 190 190 193 191 189 194 197 199 202 202 202 203 203 206 201 189 175 167 185 200 207 202 192 187 186 189 194 194 193 195 197 197 197 198 198 198 199 199 200 202 203 203 204 207 208 208 208 209 209 208 208 222 251 273 279 281 284
178 177 176 174 171 171 174 174 174 176 177 175 174 174 171 170 172 174 177 183 188 191 192 196 198 196 196 196 190 191 196 193 191 192 194 198 203 205 205 208 210 213 208 197 184 169 176 195 206 199 191 190 190 192 199 204 201 199 202 203 203 205 207 209 212 214 216 216 218 221 225 230 232 233 236 238 242 248 253 260 268 276 281 285 290
179 178 175 174 174 174 174 174 176 176 175 174 173 174 173 172 173 174 177 183 186 190 191 193 195 196 198 197 193 193 193 193 196 191 189 194 198 202 207 215 223 223 211 199 192 180 176 186 199 197 190 192 198 201 203 209 211 209 209 211 212 212 214 218 222 226 228 228 231 235 240 242 242 242 243 245 248 252 256 261 266 272 276 278 279
178 174 173 174 174 175 174 171 171 172 174 174 172 174 178 179 179 180 182 186 189 192 192 192 195 196 196 193 192 192 188 189 198 192 188 197 203 208 213 221 231 221 199 194 197 190 180 182 193 198 195 196 204 208 207 209 214 217 218 219 220 220 220 223 229 233 235 238 241 244 248 248 247 246 244 245 247 250 253 255 258 263 267 268 268
175 173 171 168 167 170 171 168 168 170 172 176 175 172 172 179 188 190 188 188 191 195 195 195 195 193 192 191 189 189 186 186 189 178 183 206 209 200 197 200 206 199 190 193 201 196 189 190 193 197 200 203 207 210 210 209 213 217 220 222 224 227 227 228 232 236 239 242 245 247 249 248 248 248 248 248 249 251 253 254 255 258 260 262 264
175 175 169 163 161 164 167 169 170 168 168 173 176 168 156 159 172 178 182 185 187 190 191 192 191 189 189 190 187 186 187 184 176 156 146 172 177 172 173 178 186 190 192 197 200 199 198 197 195 196 201 207 211 213 214 214 216 220 222 223 226 229 231 232 236 238 240 242 245 247 248 248 247 249 250 251 252 252 254 254 255 256 258 260 261
177 175 168 165 167 165 166 170 171 172 170 169 171 168 157 152 154 159 170 180 181 181 184 184 187 189 187 185 182 183 186 176 163 156 142 139 154 162 165 168 176 185 190 193 196 198 200 198 196 197 203 209 213 218 221 221 222 227 227 227 230 232 233 235 239 242 242 244 246 247 248 249 251 253 254 255 255 255 255 255 255 256 256 258 259
175 173 170 172 173 169 168 170 173 177 175 168 170 172 163 158 160 157 162 175 177 175 175 173 175 180 177 173 171 169 165 155 151 150 144 137 140 148 156 161 163 171 179 187 195 197 198 199 199 201 207 211 214 221 226 221 220 229 232 231 235 240 241 242 245 247 246 247 248 249 250 249 250 252 253 254 255 255 255 255 254 255 255 255 257
174 174 172 173 173 170 168 169 173 178 175 170 171 173 166 164 171 168 163 173 174 169 165 161 160 164 162 156 152 146 141 143 142 136 131 134 136 134 140 149 151 152 159 174 192 197 197 197 200 205 209 212 214 216 220 219 222 231 235 233 237 245 248 249 252 253 252 251 252 252 253 253 252 252 252 253 254 255 255 255 255 255 254 254 255
173 172 169 167 168 169 168 167 171 175 175 173 172 171 167 167 172 168 162 170 170 165 164 164 161 161 158 148 142 140 138 139 138 134 129 133 141 139 134 137 138 137 137 139 153 178 186 184 191 205 210 216 220 218 222 230 234 237 236 231 236 245 249 251 256 260 258 256 254 255 257 257 255 255 256 256 258 257 254 254 256 257 256 255 256
165 165 163 161 162 164 163 162 164 166 168 170 170 168 167 166 165 158 158 169 172 169 170 169 163 158 154 146 143 142 140 136 132 134 133 132 139 142 138 132 124 121 125 123 122 137 151 144 142 179 201 217 225 224 234 244 244 244 241 237 238 243 244 246 254 262 265 262 257 254 258 260 257 257 259 260 262 261 259 258 259 259 258 257 258
156 156 157 157 156 156 156 154 153 152 155 160 163 165 168 169 165 154 152 162 170 171 171 168 162 156 149 144 143 143 140 135 128 124 123 122 126 127 127 124 112 94 82 78 77 72 83 95 80 301 296 284 265 265 287 287 273 262 253 247 245 247 247 248 252 262 275 280 267 255 258 262 259 256 258 260 262 263 263 263 263 262 261 260 259
152 151 151 152 150 149 150 147 143 141 142 146 153 161 167 173 174 164 153 154 159 162 162 159 156 154 150 147 146 144 142 142 136 125 117 112 109 105 98 88 77 70 54 39 30 15 5 351 320 309 314 307 296 299 307 304 298 294 286 276 269 262 257 258 265 274 279 284 274 261 263 269 266 260 260 262 266 267 267 267 266 265 263 261 259
150 148 147 147 145 144 144 142 137 134 132 133 139 148 155 161 167 163 151 147 149 152 153 152 151 151 149 148 146 140 137 139 137 130 121 114 107 101 90 70 48 30 354 329 325 321 314 312 311 309 307 299 295 296 297 296 298 301 300 295 287 276 263 257 262 268 269 271 270 262 263 273 274 268 268 272 274 275 275 275 273 270 266 262 259
145 144 142 142 140 138 137 137 136 132 129 129 131 135 139 143 149 149 143 138 136 137 139 141 143 144 144 143 140 132 125 124 126 127 127 126 126 126 111 59 345 322 315 315 320 320 314 311 310 312 313 308 302 301 304 305 304 302 299 295 290 283 280 277 273 272 274 277 273 257 256 273 277 270 273 278 278 276 278 279 277 276 273 269 264
139 138 136 135 135 132 131 134 134 130 128 131 133 132 133 136 137 136 134 133 133 134 136 139 141 141 140 141 137 128 123 122 123 129 148 158 168 192 210 299 305 299 301 309 316 318 320 319 316 314 315 316 313 310 311 316 317 314 306 297 290 284 282 282 283 284 286 288 282 259 249 267 277 270 270 276 276 273 274 273 271 271 270 269 267
132 131 129 126 126 127 126 127 128 126 123 128 136 138 138 140 139 134 131 131 132 133 135 138 140 138 135 138 141 142 151 155 149 158 189 212 217 215 220 260 282 295 300 301 300 301 307 311 310 309 308 308 309 308 308 312 315 320 318 309 307 305 293 281 281 289 295 299 301 282 254 261 277 273 269 274 275 270 269 268 266 265 264 264 265
124 124 123 119 115 115 116 116 119 119 114 115 129 140 144 147 147 142 137 131 125 122 121 124 130 133 133 136 139 145 153 156 160 173 189 203 207 201 204 246 289 309 307 300 295 293 295 297 298 300 301 303 305 305 306 308 308 310 312 309 310 307 294 281 278 287 295 298 300 293 272 272 290 292 282 284 284 280 285 284 278 274 271 271 270
116 116 118 114 108 104 104 104 107 110 107 105 112 125 137 145 148 146 144 139 134 136 145 142 137 136 137 138 138 142 147 149 155 168 177 189 200 197 208 255 298 310 308 309 310 306 302 301 303 307 310 311 312 311 313 317 320 322 318 313 310 298 285 280 278 281 289 294 295 301 297 297 313 326 321 315 312 311 314 309 298 288 279 276 277